Retour au catalogue

EUTE 70B

ActifCommunicationsGEO
NORAD 39020·PAYLOAD·🇪🇺 EU

Lancé Dec 3, 2012 depuis Sea Launch Platform

Loading…

TLE

FraisSource: Space-Track

Époque: Sep 14, 2026, 14:08 UTC

1 39020U 12069A   26257.58914108 -.00000052  00000-0  00000-0 0  9998
2 39020   0.0663 343.5471 0003839 192.4767 100.1402  1.00272528 50401

Suivez EUTE 70B en temps réel avec AllMySat

Download on the App Store